This is the latest recevied weather packets stored in our database for station/object SM6LNJ-13. If no packets are shown the sender has not sent any weather packets the latest 1 day(s).
| Time | Temp. | Humidity | Pressure | Rain* | Wind** | Luminosity | Snow |
|---|---|---|---|---|---|---|---|
| 1778036870 | 2.22° C | 88% | 1432.1 hPa | 0 mm | 0.45 m/s, 103° | - | - |
| 1778036750 | 2.22° C | 88% | 1428.7 hPa | 0 mm | 0.45 m/s, 111° | - | - |
| 1778036630 | 2.22° C | 88% | 1432.1 hPa | 0 mm | 0.45 m/s, 87° | - | - |
| 1778036510 | 2.22° C | 88% | 1435.3 hPa | 0 mm | 0.89 m/s, 85° | - | - |
| 1778036390 | 2.22° C | 88% | 1435.2 hPa | 0 mm | 0.45 m/s, 89° | - | - |
| 1778036270 | 2.22° C | 88% | 1435.2 hPa | 0 mm | 0.45 m/s, 91° | - | - |
| 1778036150 | 2.22° C | 88% | 1435.2 hPa | 0 mm | 0.45 m/s, 96° | - | - |
| 1778036030 | 2.22° C | 88% | 1438.6 hPa | 0 mm | 0.45 m/s, 91° | - | - |
| 1778035910 | 2.22° C | 88% | 1438.5 hPa | 0 mm | 0.45 m/s, 94° | - | - |
| 1778035790 | 2.22° C | 88% | 1438.4 hPa | 0 mm | 0.45 m/s, 121° | - | - |
| 1778035671 | 2.22° C | 88% | 1441.7 hPa | 0 mm | 0.45 m/s, 103° | - | - |
| 1778035550 | 2.22° C | 88% | 1441.7 hPa | 0 mm | 0 m/s | - | - |
| 1778035430 | 2.22° C | 87% | 1441.7 hPa | 0 mm | 0 m/s | - | - |
| 1778035310 | 2.22° C | 87% | 1441.6 hPa | 0 mm | 0 m/s | - | - |
| 1778035190 | 2.22° C | 87% | 1445 hPa | 0 mm | 0.45 m/s, 106° | - | - |
| 1778035070 | 2.22° C | 87% | 1444.8 hPa | 0 mm | 0.45 m/s, 100° | - | - |
| 1778034950 | 2.22° C | 87% | 1445 hPa | 0 mm | 0.45 m/s, 96° | - | - |
| 1778034830 | 2.22° C | 87% | 1441.8 hPa | 0 mm | 0.45 m/s, 99° | - | - |
| 1778034710 | 2.22° C | 87% | 1441.8 hPa | 0 mm | 0 m/s | - | - |
| 1778034590 | 2.22° C | 87% | 1441.7 hPa | 0 mm | 0 m/s | - | - |
| 1778034470 | 2.22° C | 87% | 1445 hPa | 0 mm | 0 m/s | - | - |
| 1778034350 | 2.22° C | 87% | 1444.8 hPa | 0 mm | 0.45 m/s, 110° | - | - |
| 1778034230 | 2.22° C | 87% | 1448.2 hPa | 0 mm | 0.45 m/s, 100° | - | - |
| 1778034110 | 2.22° C | 87% | 1444.8 hPa | 0 mm | 0.45 m/s, 100° | - | - |
| 1778033990 | 2.22° C | 87% | 1445 hPa | 0 mm | 0.45 m/s, 109° | - | - |
* Rain latest hour (hover to see other rain measurements)
** Current wind speed in m/s (hover to see current wind gust speed)